When you browse on this site, cookies collect data to enhance your experience and personalize the content and advertising you see.
Visit our Privacy Policy to learn more. By continuing to use the site, you agree to this use of cookies and data.
  • In Portugal
  • List of Countries
  • For 7 days
  • Water Temperature
  • Satellite Maps
  • Weather Map
  • Weather Widgets
  • user-avatar
    Login

    Hourly Weather Bruges

    Today, 25 May, Saturday

    Time Temperature Precipitation Wind Pressure Humidity
    00:00 +10°C° 0 mm 0 mps 762 mmHg 80%
    01:00 +10°C° 0 mm 0 mps 762 mmHg 81%
    02:00 +10°C° 0 mm 0 mps 762 mmHg 82%
    03:00 +11°C° 0 mm 1 mps 762 mmHg 84%
    04:00 +11°C° 0.1 mm 0 mps 762 mmHg 82%
    05:00 +11°C° 0.1 mm 0 mps 762 mmHg 80%
    06:00 +13°C° 0 mm 1 mps 762 mmHg 82%
    07:00 +14°C° 0.5 mm 1 mps 762 mmHg 81%
    08:00 +15°C° 0.5 mm 1 mps 762 mmHg 81%
    09:00 +16°C° 0.5 mm 1 mps 762 mmHg 80%
    10:00 +17°C° 0.7 mm 2 mps 762 mmHg 76%
    11:00 +18°C° 0.7 mm 2 mps 762 mmHg 72%
    12:00 +19°C° 0.7 mm 2 mps 762 mmHg 68%
    13:00 +18°C° 0 mm 3 mps 762 mmHg 67%
    14:00 +18°C° 0 mm 4 mps 762 mmHg 66%
    15:00 +18°C° 0 mm 4 mps 762 mmHg 65%
    16:00 +17°C° 0 mm 4 mps 762 mmHg 67%
    17:00 +17°C° 0 mm 3 mps 761 mmHg 70%
    18:00 +16°C° 0 mm 2 mps 761 mmHg 72%
    19:00 +15°C° 0 mm 2 mps 761 mmHg 76%
    20:00 +14°C° 0 mm 1 mps 762 mmHg 80%
    21:00 +11°C° 0 mm 0 mps 762 mmHg 84%
    22:00 +12°C° 0 mm 1 mps 762 mmHg 85%
    23:00 +13°C° 0 mm 2 mps 761 mmHg 87%

    Tomorrow, 26 May, Sunday

    Time Temperature Precipitation Wind Pressure Humidity
    00:00 +12°C° 0 mm 3 mps 761 mmHg 88%
    01:00 +12°C° 0 mm 3 mps 761 mmHg 90%
    02:00 +12°C° 0 mm 4 mps 761 mmHg 92%
    03:00 +12°C° 0 mm 4 mps 760 mmHg 94%
    04:00 +13°C° 0 mm 4 mps 760 mmHg 93%
    05:00 +13°C° 0 mm 5 mps 760 mmHg 91%
    06:00 +14°C° 0 mm 5 mps 760 mmHg 89%
    07:00 +16°C° 0 mm 5 mps 760 mmHg 84%
    08:00 +17°C° 0 mm 6 mps 760 mmHg 79%
    09:00 +19°C° 0 mm 6 mps 760 mmHg 74%
    10:00 +20°C° 0 mm 6 mps 759 mmHg 72%
    11:00 +20°C° 0 mm 7 mps 759 mmHg 71%
    12:00 +21°C° 0 mm 7 mps 759 mmHg 69%
    13:00 +21°C° 0 mm 7 mps 759 mmHg 70%
    14:00 +21°C° 0 mm 8 mps 758 mmHg 71%
    15:00 +20°C° 0 mm 8 mps 758 mmHg 71%
    16:00 +18°C° 0.1 mm 8 mps 758 mmHg 77%
    17:00 +17°C° 0.1 mm 7 mps 758 mmHg 82%
    18:00 +16°C° 0.1 mm 7 mps 757 mmHg 87%
    19:00 +15°C° 0.5 mm 7 mps 757 mmHg 89%
    20:00 +15°C° 0.5 mm 6 mps 757 mmHg 92%
    21:00 +14°C° 0.5 mm 6 mps 758 mmHg 94%
    22:00 +14°C° 0.1 mm 6 mps 758 mmHg 94%
    23:00 +14°C° 0.1 mm 5 mps 758 mmHg 94%

    Day after tomorrow, 27 May, Monday

    Time Temperature Precipitation Wind Pressure Humidity
    00:00 +14°C° 0.1 mm 5 mps 758 mmHg 93%
    01:00 +13°C° 0 mm 5 mps 758 mmHg 93%
    02:00 +12°C° 0 mm 4 mps 758 mmHg 93%
    03:00 +11°C° 0 mm 4 mps 758 mmHg 92%
    04:00 +12°C° 0 mm 4 mps 758 mmHg 89%
    05:00 +12°C° 0 mm 4 mps 758 mmHg 87%
    06:00 +12°C° 0 mm 4 mps 758 mmHg 84%
    07:00 +13°C° 0 mm 4 mps 758 mmHg 79%
    08:00 +14°C° 0 mm 4 mps 759 mmHg 74%
    09:00 +15°C° 0 mm 5 mps 759 mmHg 68%
    10:00 +15°C° 0 mm 5 mps 759 mmHg 66%
    11:00 +16°C° 0 mm 5 mps 759 mmHg 63%
    12:00 +16°C° 0 mm 5 mps 759 mmHg 61%
    13:00 +16°C° 0 mm 5 mps 758 mmHg 60%
    14:00 +17°C° 0 mm 4 mps 758 mmHg 59%
    15:00 +17°C° 0 mm 4 mps 758 mmHg 58%
    16:00 +17°C° 0 mm 4 mps 758 mmHg 62%
    17:00 +17°C° 0 mm 4 mps 758 mmHg 66%
    18:00 +15°C° 0 mm 4 mps 758 mmHg 70%
    19:00 +14°C° 0.1 mm 4 mps 757 mmHg 74%
    20:00 +13°C° 0.1 mm 4 mps 757 mmHg 79%
    21:00 +12°C° 0.1 mm 5 mps 757 mmHg 83%
    22:00 +12°C° 0.1 mm 4 mps 757 mmHg 84%
    23:00 +12°C° 0.1 mm 3 mps 757 mmHg 86%

    28 May, Tuesday

    Time Temperature Precipitation Wind Pressure Humidity
    00:00 +12°C° 0.1 mm 3 mps 757 mmHg 87%
    01:00 +11°C° 0.2 mm 3 mps 756 mmHg 88%
    02:00 +11°C° 0.2 mm 4 mps 756 mmHg 90%
    03:00 +10°C° 0.2 mm 4 mps 756 mmHg 91%
    04:00 +11°C° 0.4 mm 4 mps 756 mmHg 89%
    05:00 +10°C° 0.4 mm 5 mps 756 mmHg 86%
    06:00 +12°C° 0.4 mm 5 mps 755 mmHg 83%
    07:00 +12°C° 0.8 mm 5 mps 756 mmHg 82%
    08:00 +13°C° 0.8 mm 5 mps 756 mmHg 81%
    09:00 +13°C° 0.8 mm 6 mps 756 mmHg 79%
    10:00 +14°C° 0.1 mm 6 mps 756 mmHg 76%
    11:00 +14°C° 0.1 mm 6 mps 756 mmHg 72%
    12:00 +15°C° 0.1 mm 6 mps 756 mmHg 68%
    13:00 +15°C° 0 mm 6 mps 757 mmHg 67%
    14:00 +15°C° 0 mm 5 mps 757 mmHg 66%
    15:00 +15°C° 0 mm 5 mps 757 mmHg 65%
    16:00 +15°C° 0 mm 5 mps 757 mmHg 67%
    17:00 +14°C° 0 mm 4 mps 758 mmHg 69%
    18:00 +14°C° 0 mm 3 mps 758 mmHg 72%
    19:00 +13°C° 0 mm 3 mps 759 mmHg 78%
    20:00 +12°C° 0 mm 2 mps 759 mmHg 83%
    21:00 +10°C° 0 mm 2 mps 760 mmHg 89%
    22:00 +10°C° 0 mm 2 mps 760 mmHg 90%
    23:00 +9°C° 0 mm 2 mps 760 mmHg 91%

    29 May, Wednesday

    Time Temperature Precipitation Wind Pressure Humidity
    00:00 +9°C° 0 mm 2 mps 761 mmHg 91%
    01:00 +9°C° 0 mm 2 mps 761 mmHg 92%
    02:00 +9°C° 0 mm 2 mps 761 mmHg 92%
    03:00 +9°C° 0 mm 2 mps 761 mmHg 93%
    04:00 +9°C° 0 mm 3 mps 762 mmHg 89%
    05:00 +10°C° 0 mm 3 mps 763 mmHg 86%
    06:00 +11°C° 0 mm 3 mps 763 mmHg 82%
    07:00 +12°C° 0 mm 3 mps 763 mmHg 76%
    08:00 +14°C° 0 mm 2 mps 764 mmHg 70%
    09:00 +15°C° 0 mm 2 mps 764 mmHg 64%
    10:00 +16°C° 0 mm 2 mps 764 mmHg 61%
    11:00 +17°C° 0 mm 2 mps 765 mmHg 58%
    12:00 +18°C° 0 mm 1 mps 765 mmHg 55%
    13:00 +19°C° 0 mm 1 mps 765 mmHg 55%
    14:00 +18°C° 0 mm 2 mps 765 mmHg 55%
    15:00 +18°C° 0 mm 2 mps 764 mmHg 55%
    16:00 +17°C° 0 mm 2 mps 765 mmHg 58%
    17:00 +17°C° 0 mm 2 mps 765 mmHg 62%
    18:00 +17°C° 0 mm 2 mps 765 mmHg 65%
    19:00 +15°C° 0 mm 2 mps 765 mmHg 70%
    20:00 +14°C° 0 mm 2 mps 765 mmHg 74%
    21:00 +11°C° 0 mm 3 mps 765 mmHg 79%
    22:00 +11°C° 0 mm 3 mps 765 mmHg 76%
    23:00 +11°C° 0 mm 4 mps 765 mmHg 74%

    30 May, Thursday

    Time Temperature Precipitation Wind Pressure Humidity
    00:00 +11°C° 0 mm 4 mps 765 mmHg 71%
    01:00 +10°C° 0 mm 5 mps 764 mmHg 73%
    02:00 +11°C° 0 mm 6 mps 764 mmHg 75%
    03:00 +11°C° 0 mm 7 mps 764 mmHg 77%
    04:00 +12°C° 0 mm 7 mps 764 mmHg 80%
    05:00 +12°C° 0 mm 7 mps 763 mmHg 83%
    06:00 +14°C° 0 mm 7 mps 763 mmHg 86%
    07:00 +13°C° 0.1 mm 8 mps 763 mmHg 86%
    08:00 +13°C° 0.1 mm 8 mps 763 mmHg 86%
    09:00 +13°C° 0.1 mm 9 mps 763 mmHg 86%
    10:00 +13°C° 0.4 mm 9 mps 763 mmHg 87%
    11:00 +13°C° 0.4 mm 9 mps 763 mmHg 88%
    12:00 +13°C° 0.4 mm 8 mps 763 mmHg 89%
    13:00 +15°C° 0.1 mm 9 mps 763 mmHg 86%
    14:00 +14°C° 0.1 mm 10 mps 762 mmHg 83%
    15:00 +16°C° 0.1 mm 11 mps 762 mmHg 80%
    16:00 +16°C° 0 mm 10 mps 762 mmHg 82%
    17:00 +15°C° 0 mm 9 mps 762 mmHg 84%
    18:00 +15°C° 0 mm 9 mps 762 mmHg 86%
    19:00 +15°C° 0 mm 8 mps 762 mmHg 87%
    20:00 +15°C° 0 mm 8 mps 762 mmHg 88%
    21:00 +14°C° 0 mm 7 mps 762 mmHg 89%
    22:00 +14°C° 0.2 mm 7 mps 762 mmHg 91%
    23:00 +14°C° 0.2 mm 6 mps 762 mmHg 92%
    Show more